Reading, PA

2:43 AM EST on December 16, 2019 (GMT -0500)
Reading Regional-Spaatz

Weather History for KRDG - November, 2019

Change the Weather History Date:

Friday, November 15, 2019

  Actual Average Record
Temperature  
Mean Temperature 38 °F 44 °F  
Max Temperature 50 °F 54 °F 73 °F (1956)
Min Temperature 25 °F 35 °F 19 °F (1986)
Degree Days  
Heating Degree Days 28 21  
Month to date heating degree days 366 275  
Since 1 July heating degree days 605 713  
Cooling Degree Days 0 0  
Month to date cooling degree days 0 0  
Year to date cooling degree days 1239 896  
Moisture  
Dew Point 25 °F    
Average Humidity 68    
Maximum Humidity 100    
Minimum Humidity 36    
Precipitation  
Precipitation 0.00 in 0.10 in 1.65 in (1914)
Month to date precipitation 0.43 1.60  
Year to date precipitation 49.19 38.12  
Sea Level Pressure  
Sea Level Pressure 30.25 in    
Wind  
Wind Speed 3 mph ()    
Max Wind Speed 14 mph    
Max Gust Speed 20 mph    
Visibility 10.0 miles    
Events      
T = Trace of Precipitation, MM = Missing Value Source: Averaged Metar Reports

Daily Weather History Graph

Daily Weather History Graph

Search for Another Location

Airport or City:

Astronomy

Nov. 15, 2019 Rise Set
Actual Time 6:49 AM EST 4:46 PM EST
Civil Twilight 6:20 AM EST 5:15 PM EST
Nautical Twilight 5:47 AM EST 5:48 PM EST
Astronomical Twilight 5:15 AM EST 6:21 PM EST
Moon 7:19 PM EST (11/15) 9:44 AM EST (11/15)
Length of Visible Light 10h 55m
Length of Day
9h 57m
Waning Gibbous, 90% of the Moon is Illuminated
Nov 15
Waning Gibbous
Nov 19
Last Quarter
Nov 26
New
Dec 4
First Quarter
Dec 12
Full

Hourly Weather History & Observations

Time (EST) Temp. Windchill Dew Point Humidity Pressure Visibility Wind Dir Wind Speed Gust Speed Precip Events Conditions
12:54 AM 30.0 °F - 24.1 °F 79% 30.29 in 10.0 mi Calm Calm - N/A   Clear
1:54 AM 30.0 °F - 23.0 °F 75% 30.28 in 10.0 mi Calm Calm - N/A   Clear
2:54 AM 28.0 °F - 24.1 °F 85% 30.28 in 10.0 mi Calm Calm - N/A   Clear
3:54 AM 27.0 °F - 21.9 °F 81% 30.27 in 10.0 mi Calm Calm - N/A   Clear
4:54 AM 26.1 °F - 24.1 °F 92% 30.27 in 10.0 mi Calm Calm - N/A   Clear
5:54 AM 27.0 °F 23.0 °F 23.0 °F 85% 30.27 in 10.0 mi NW 3.5 mph - N/A   Clear
6:54 AM 25.0 °F - 23.0 °F 92% 30.27 in 10.0 mi Calm Calm - N/A   Clear
7:54 AM 27.0 °F - 26.1 °F 96% 30.29 in 10.0 mi Calm Calm - N/A   Clear
8:54 AM 32.0 °F 28.7 °F 26.1 °F 79% 30.30 in 10.0 mi NW 3.5 mph - N/A   Clear
9:54 AM 37.9 °F - 26.1 °F 62% 30.29 in 10.0 mi Calm Calm - N/A   Clear
10:54 AM 46.0 °F 40.6 °F 27.0 °F 47% 30.26 in 10.0 mi WNW 11.5 mph 16.1 mph N/A   Clear
11:54 AM 46.9 °F - 27.0 °F 46% 30.23 in 10.0 mi West 10.4 mph - N/A   Clear
1:54 PM 50.0 °F - 27.0 °F 41% 30.20 in 10.0 mi West 8.1 mph - N/A   Clear
2:54 PM 50.0 °F - 25.0 °F 38% 30.18 in 10.0 mi WSW 9.2 mph - N/A   Clear
3:54 PM 48.0 °F - 25.0 °F 41% 30.19 in 10.0 mi West 6.9 mph - N/A   Clear
4:54 PM 46.9 °F - 25.0 °F 42% 30.19 in 10.0 mi Calm Calm - N/A   Clear
5:54 PM 45.0 °F - 25.0 °F 46% 30.20 in 10.0 mi Calm Calm - N/A   Clear
6:54 PM 39.0 °F 36.8 °F 26.1 °F 60% 30.21 in 10.0 mi West 3.5 mph - N/A   Clear
7:54 PM 34.0 °F 29.8 °F 26.1 °F 73% 30.23 in 10.0 mi NW 4.6 mph - N/A   Clear
8:54 PM 32.0 °F 24.2 °F 26.1 °F 79% 30.25 in 10.0 mi NW 9.2 mph - N/A   Clear
9:54 PM 33.1 °F 26.1 °F 26.1 °F 75% 30.27 in 10.0 mi NW 8.1 mph - N/A   Clear
10:54 PM 37.9 °F 31.5 °F 28.9 °F 70% 30.28 in 10.0 mi North 9.2 mph - N/A   Clear
11:54 PM 39.0 °F 34.0 °F 30.0 °F 70% 30.28 in 10.0 mi North 6.9 mph - N/A   Mostly Cloudy